EHI
0 0 0 0 0 0 0 0 0 0 0 0 0 0 1 3 5 7 8 7 5 6 9 14 15 14 15 16 16 16 16 14 13 13 12 11 9 7 5 4 3 3 3 3
0 0 0 0 0 0 0 0 0 0 0 0 0 0 1 3 6 7 6 4 3 3 6 10 12 13 13 13 12 13 13 13 12 12 11 10 8 6 4 3 2 2 2 1
0 0 0 0 0 0 0 0 0 0 0 0 0 0 1 3 6 6 4 2 1 1 2 5 8 10 10 9 9 9 9 10 10 8 7 6 4 3 3 2 1 1 1 0
0 0 0 0 0 0 0 0 0 0 0 0 0 0 0 2 4 4 2 1 0 0 0 2 4 6 7 7 7 7 7 7 7 5 3 2 1 1 1 1 0 0 0 0
0 0 0 0 0 0 0 0 0 0 0 0 0 1 0 0 1 1 1 0 0 0 0 1 3 4 5 6 6 5 4 5 5 5 3 1 0 0 0 0 0 0 0 0
0 0 0 0 0 0 0 0 0 1 1 1 0 0 0 0 0 0 0 0 1 1 1 1 2 3 4 4 5 4 3 4 5 5 4 2 1 0 0 0 0 0 0 0
0 0 0 0 0 0 0 0 0 1 1 1 0 0 0 0 1 1 1 0 1 2 2 2 3 4 3 3 3 3 2 3 4 5 4 3 1 0 0 0 0 0 0 0
0 0 0 0 0 0 0 0 0 0 0 0 0 1 1 1 1 2 1 1 2 3 2 2 4 5 4 3 3 2 1 1 2 3 3 1 1 0 0 0 0 0 0 0
0 0 0 0 0 0 0 0 0 0 0 0 0 1 2 2 2 2 2 2 3 3 3 2 4 5 4 3 3 2 1 0 0 1 1 0 0 0 0 0 0 1 1 1
0 0 0 0 0 0 0 0 0 0 0 0 1 1 1 1 2 3 4 3 3 3 3 2 3 4 3 3 3 2 1 0 0 0 0 0 1 1 0 0 1 1 2 2
0 0 0 0 0 0 1 1 0 0 0 0 2 2 2 1 1 3 4 3 3 3 2 2 3 3 3 4 3 2 1 0 0 0 1 1 1 1 0 0 1 1 1 1
0 0 0 0 0 1 2 2 1 0 0 0 1 3 3 2 1 1 2 2 2 2 1 2 3 3 3 3 3 2 1 0 0 0 0 0 1 1 0 0 0 0 0 0
0 0 0 0 0 1 3 3 1 0 0 0 0 1 1 1 0 1 2 3 3 3 2 2 2 2 2 2 1 1 1 0 0 0 0 0 0 0 0 0 0 0 0 0
0 0 0 0 1 2 2 2 1 0 0 0 0 0 0 0 0 1 2 3 3 3 3 2 1 1 1 0 0 0 0 0 0 0 0 0 0 0 0 0 0 0 0 0
0 0 0 0 1 1 1 1 1 0 0 0 0 0 0 0 0 1 2 3 3 3 3 1 0 0 0 0 0 0 0 0 0 0 0 0 0 0 0 0 0 0 0 0
0 0 0 0 0 0 0 0 0 0 0 0 0 0 0 0 0 1 2 2 2 2 2 1 0 0 0 0 0 0 0 0 0 0 0 0 0 0 0 0 0 0 0 0
0 0 0 0 0 0 0 0 0 0 0 0 0 0 0 0 0 0 1 1 0 1 1 0 0 0 0 0 0 0 0 0 0 0 0 0 0 0 0 0 0 0 0 0
0 0 0 0 0 0 0 0 0 0 0 0 0 0 0 0 0 0 0 0 0 0 0 0 0 0 0 0 0 0 0 0 0 0 0 0 0 0 0 0 0 0 0 0
0 0 0 0 0 0 0 0 0 0 0 0 0 0 0 0 0 0 0 0 0 0 0 0 0 0 0 0 0 0 0 0 0 0 0 0 0 0 0 0 0 0 0 0
0 0 0 0 0 0 0 0 0 0 0 0 0 0 0 0 0 0 0 0 0 0 0 0 0 0 0 0 0 0 0 0 0 0 0 0 0 0 0 0 0 0 0 0
0 0 0 0 0 0 0 0 0 0 0 0 0 0 0 0 0 0 0 0 0 0 0 0 0 0 0 0 0 0 0 0 0 0 0 0 0 0 0 0 0 0 0 0
0 0 0 0 0 0 0 0 0 0 0 0 0 0 0 0 0 0 0 0 0 0 0 0 0 0 0 0 0 0 0 0 0 0 0 0 0 0 0 0 0 0 0 0
0 0 0 0 0 0 0 0 0 0 0 0 0 0 0 0 0 0 0 0 0 0 0 0 0 0 0 0 0 0 0 0 0 0 0 0 0 0 0 0 0 0 0 0
0 0 0 0 0 0 0 0 0 0 0 0 0 0 0 0 0 0 0 0 0 0 0 0 0 0 0 0 0 0 0 0 0 0 0 0 0 0 0 0 0 0 0 0
0 0 0 0 0 0 0 0 0 0 0 0 0 0 0 0 0 0 0 0 0 0 0 0 0 0 0 0 0 0 0 0 0 0 0 0 0 0 0 0 0 0 0 0
0 0 0 0 0 0 0 0 0 0 0 0 0 0 0 0 0 0 0 0 0 0 0 0 0 0 0 0 0 0 0 0 0 0 0 0 0 0 0 0 0 0 0 0
0 0 0 0 0 0 0 0 0 0 0 0 0 0 0 0 0 0 0 0 0 0 0 0 0 0 0 0 0 0 0 0 0 0 0 0 0 0 0 0 0 0 0 0
Wind_Speed
4 4 4 4 5 7 6 8 9 8 7 8 6 5 3 2 2 3 3 3 3 3 3 4 5 5 6 7 8 8 9 9 9 8 8 8 8 8 8 8 9 8 8 7
0 1 3 2 4 6 5 6 5 4 6 5 1 2 2 3 3 3 3 3 3 3 3 4 5 5 6 7 7 8 8 8 7 7 8 8 9 8 8 8 7 7 8 8
1 1 3 2 4 5 4 4 7 7 7 2 2 3 3 3 4 3 3 3 4 5 5 5 6 6 6 7 7 7 7 7 7 8 8 9 9 8 9 8 7 8 8 8
3 3 4 6 2 3 4 2 2 3 3 3 4 3 2 2 3 2 2 2 3 4 4 4 4 4 5 5 6 7 6 6 7 8 8 8 8 9 8 7 7 7 8 8
4 4 2 3 1 3 4 1 2 4 3 3 5 4 3 1 1 2 2 2 2 2 3 4 5 5 5 5 5 6 6 7 7 7 8 8 9 9 7 7 7 7 7 8
4 4 5 6 2 1 4 2 2 4 5 5 5 3 2 1 0 1 1 1 1 2 3 4 4 5 6 6 6 6 6 6 6 7 8 9 9 8 6 7 7 7 7 7
4 3 5 3 2 2 4 7 2 3 4 4 3 3 2 1 2 2 2 2 2 3 3 4 4 6 6 5 6 6 5 5 5 6 7 7 6 6 6 7 6 6 7 6
4 4 6 2 2 4 5 1 3 4 4 4 4 4 4 4 3 3 4 4 3 3 3 3 4 5 5 5 4 3 4 4 5 5 6 5 6 6 6 7 7 6 6 5
4 4 2 1 1 2 2 4 3 4 4 6 6 5 4 4 4 3 3 3 3 3 3 2 2 3 3 2 2 3 4 4 4 4 4 4 5 6 5 5 5 5 5 5
0 1 1 2 2 3 3 4 5 6 6 7 7 6 6 5 4 4 4 4 3 4 4 3 2 1 1 1 3 4 4 4 4 4 4 3 3 4 4 4 5 5 5 5
1 1 2 4 4 4 5 7 8 8 7 7 8 7 6 5 5 5 5 4 4 4 4 3 3 3 2 1 3 3 3 3 3 4 4 4 3 2 3 3 4 5 5 5
3 3 2 1 2 4 7 7 7 9 9 8 7 7 7 6 5 5 5 5 5 5 4 4 4 4 3 2 2 3 3 2 2 3 3 3 4 3 4 3 3 3 3 3
2 1 3 3 4 5 6 7 8 9 9 9 7 7 7 6 6 6 6 6 5 4 4 4 4 4 4 3 3 3 3 2 2 3 3 3 3 4 3 3 6 6 4 3
3 5 5 4 5 6 8 9 9 10 9 9 7 7 7 8 7 8 7 6 5 5 5 5 5 5 4 4 4 4 3 3 3 2 3 3 3 3 3 3 3 3 4 6
3 4 5 7 7 7 7 9 10 10 9 9 8 8 8 8 8 7 6 6 6 7 7 6 6 5 4 4 5 5 4 3 3 3 3 3 3 3 3 4 4 3 4 4
6 8 8 9 9 9 9 9 10 8 8 8 8 8 8 8 7 7 7 7 8 7 6 6 6 5 4 5 5 5 5 6 5 4 4 4 4 4 4 4 4 4 4 3
8 7 8 9 9 9 9 9 8 7 8 8 8 7 8 8 8 8 8 7 7 7 6 6 5 5 5 6 6 5 5 6 9 7 6 5 5 5 5 5 5 5 5 5
6 7 7 9 9 9 9 8 8 8 8 7 7 8 8 8 8 7 6 6 8 9 9 8 7 7 8 7 6 6 6 6 7 7 7 7 7 7 7 7 7 7 6 7
9 10 9 9 9 8 8 8 7 7 7 8 8 8 7 7 7 6 7 8 9 8 8 8 10 10 9 9 8 7 8 8 8 8 8 9 9 8 8 8 7 7 7 6
10 10 10 10 9 9 8 8 8 8 7 8 9 9 9 8 7 7 8 8 6 4 4 7 8 8 8 9 10 7 9 9 9 8 8 8 8 8 8 8 7 7 7 7
10 10 11 10 9 9 8 8 8 8 7 8 9 9 8 7 7 7 7 7 6 6 7 9 7 7 7 8 10 8 9 9 8 8 8 7 7 7 7 7 7 7 6 6
9 10 10 9 9 8 7 7 8 9 8 8 8 8 8 8 7 8 7 5 4 7 6 6 6 9 10 10 8 8 9 9 8 7 7 7 7 7 7 7 7 6 6 6
8 9 9 9 9 8 8 7 8 8 8 8 7 7 7 6 5 6 6 4 5 9 7 7 9 12 12 9 8 8 9 9 8 7 7 7 7 6 6 7 6 6 6 5
9 9 9 8 9 10 9 7 7 7 8 7 7 6 6 6 6 5 5 7 10 11 8 9 13 13 11 7 7 8 7 7 7 7 7 7 6 6 6 6 6 5 5 6
9 9 9 9 9 7 7 7 8 8 8 7 8 7 6 5 5 5 6 8 10 10 8 10 13 12 9 7 7 7 7 7 7 6 7 6 6 6 5 5 5 5 5 5
8 7 6 6 5 5 5 5 6 5 6 7 6 6 6 5 6 6 6 8 10 9 7 6 7 8 7 7 7 7 7 7 7 7 7 6 6 6 5 5 6 5 4 4
8 7 6 6 6 5 5 6 6 6 5 6 6 5 5 6 6 7 7 6 6 6 6 6 6 6 6 6 7 7 6 6 6 6 6 5 5 5 5 5 4 4 4 4
Wind_Direction
204 205 177 188 189 175 172 176 178 212 215 238 232 222 211 165 136 131 137 143 151 155 161 162 161 167 174 171 169 169 170 178 186 184 181 178 179 180 179 180 184 181 181 184
215 191 170 190 200 187 184 176 186 183 235 243 235 127 118 135 142 152 172 173 169 163 159 166 169 171 169 170 168 168 176 185 181 177 178 180 180 176 175 180 180 176 181 185
201 279 97 226 216 189 180 182 170 193 217 168 127 139 160 166 159 173 190 185 177 177 181 184 181 175 176 172 166 170 178 180 178 178 182 183 179 175 181 183 181 182 185 187
127 95 192 241 254 159 144 168 175 176 179 167 166 154 137 150 165 172 184 191 192 180 177 176 170 166 164 158 162 169 174 177 178 178 182 179 177 183 185 182 184 188 191 193
126 149 239 277 200 149 142 219 187 163 156 139 133 90 33 6 156 184 202 207 207 180 167 163 161 155 148 153 161 169 178 183 184 182 183 182 187 189 186 184 189 192 191 192
131 142 206 231 239 181 115 247 228 164 163 155 130 122 242 281 74 41 33 78 117 126 134 147 153 147 150 162 170 185 191 190 185 183 185 190 194 191 184 186 192 189 193 197
146 169 243 257 293 124 166 225 188 152 152 141 145 169 180 91 60 49 42 39 76 107 126 146 149 150 160 171 192 199 190 182 183 186 189 191 189 185 180 182 183 187 195 201
145 164 233 300 89 176 211 158 116 118 115 115 115 101 84 77 66 59 54 46 64 86 92 114 140 152 164 192 198 175 170 176 183 183 189 189 180 181 179 181 185 191 196 206
183 201 258 328 236 266 173 136 134 122 114 117 107 97 87 76 66 58 62 56 57 80 83 80 119 147 172 197 162 159 168 179 180 174 179 171 173 176 172 178 188 195 199 210
168 287 349 18 34 44 69 96 104 110 108 106 106 100 87 75 64 58 54 55 56 74 78 64 56 90 141 146 153 160 176 181 172 169 167 157 161 170 175 185 192 194 199 206
138 197 59 39 46 65 80 87 85 84 89 97 101 95 92 82 67 58 52 46 54 66 69 57 48 50 47 92 140 151 162 166 166 165 159 154 151 155 179 190 196 192 198 196
202 212 159 139 41 76 91 89 93 95 84 74 80 87 88 78 64 59 56 51 54 54 55 47 44 39 30 43 104 132 131 134 141 139 145 148 144 120 71 86 106 160 176 170
177 115 115 112 80 76 93 98 96 93 94 88 75 76 79 73 61 59 55 50 47 44 45 49 47 39 25 33 65 89 106 114 120 126 132 138 144 145 129 74 63 63 70 105
130 115 103 93 94 87 95 97 92 88 84 85 82 79 77 74 65 57 48 41 43 51 51 50 48 33 17 38 64 73 80 87 97 109 119 123 126 125 125 121 99 65 52 66
85 107 120 110 100 95 97 98 93 87 83 79 76 76 74 73 67 57 45 45 53 56 48 45 45 28 21 51 69 74 79 80 86 89 93 98 101 102 104 107 102 95 86 71
104 105 108 105 103 100 98 97 96 92 87 83 79 75 74 75 71 61 50 48 55 51 42 45 43 27 34 57 69 71 71 73 78 83 83 85 88 94 95 95 92 84 77 70
118 119 118 113 104 97 95 97 98 98 93 88 84 81 77 74 67 57 48 45 51 47 40 45 39 37 51 61 70 71 71 71 71 75 74 76 78 79 82 84 85 80 70 60
107 118 121 118 112 103 96 93 94 94 94 91 87 81 77 72 67 57 47 48 52 46 35 33 40 51 56 61 68 69 72 72 71 73 72 71 73 72 76 79 79 77 69 61
101 107 106 103 103 103 100 97 97 95 93 92 89 83 75 69 66 60 54 53 51 44 24 30 48 55 57 60 70 74 78 78 76 73 73 73 73 71 71 72 71 69 67 65
100 102 101 97 95 98 99 97 97 93 92 95 91 83 72 63 63 65 62 56 39 25 27 46 55 56 56 60 69 74 77 78 78 76 74 74 74 73 72 71 70 70 67 65
105 104 101 98 94 90 93 96 98 95 90 89 89 86 79 67 63 66 66 57 22 27 48 55 59 58 60 64 68 72 74 76 76 75 75 75 75 74 73 72 70 68 67 65
104 105 103 102 100 93 87 90 96 97 92 87 87 87 82 74 70 67 59 55 38 47 56 56 61 66 69 69 69 72 74 76 75 75 74 74 74 73 69 69 67 65 64 63
96 98 98 98 98 94 86 83 87 90 90 88 88 87 84 75 69 79 70 40 52 62 63 60 66 70 72 70 70 72 74 75 75 74 73 72 72 71 69 66 63 61 59 57
91 90 91 94 95 92 85 77 76 77 78 75 73 79 87 86 69 58 74 69 66 70 66 61 65 70 72 71 72 72 72 73 74 74 73 71 70 69 67 66 64 59 56 54
93 91 91 92 90 90 91 87 81 77 76 71 64 63 64 74 86 78 73 71 69 70 68 60 63 67 69 72 72 72 71 71 75 77 74 73 69 66 63 60 58 55 52 49
91 88 84 84 91 93 92 90 86 80 82 78 67 62 66 69 75 76 75 72 70 69 67 64 64 66 68 69 70 71 71 72 71 70 71 71 67 64 60 56 53 49 46 43
83 84 82 76 69 74 83 86 87 81 81 88 80 66 70 74 74 74 75 73 70 67 66 64 64 67 69 70 69 66 66 67 69 69 67 64 61 59 57 55 50 46 43 41